Flag for Canada Weather past 2 weeks in Cranbrook, British Columbia, Canada

Now
48 °F

Scattered clouds.


Feels Like: 43 °F
Forecast: 44 / 50 °F
Wind: 12 mph from Northeast

Location: Cranbrook

Current Time: Sep 4, 2015 at 9:54:48 PM

Latest Report: Sep 4, 2015 at 9:00 PM


Visibility: 25 mi

Pressure: 30.05 "Hg (26.84 "Hg at 933m altitude)

Humidity: 66%

Dew point: 37 °F

Location of CranbrookLocation

Historic Weather in Cranbrook — Graph

°F

Cranbrook temperature yesterday

Maximum temperature yesterday: 61 °F (at 6:00 PM)
Minimum temperature yesterday: 41 °F (at 6:00 AM)
Average temperature yesterday: 49 °F

Past Weeks' High & Low Weather Summary

 TemperatureHumidityPressure
High86 °F (Aug 27, 5:00 PM)94% (Aug 21, 5:00 PM)30.31 "Hg (Aug 21, 5:00 PM)
Low37 °F (Sep 4, 7:00 AM)15% (Aug 27, 6:00 PM)29.51 "Hg (Aug 21, 5:00 AM)
Average59 °F56%29.93 "Hg
* Reported Aug 20 8:00 PM — Sep 4 8:00 PM, Cranbrook, Weather by CustomWeather, © 2015

Note: Actual official high and low records may vary slightly from our data, if they occured in-between our weather recording intervals... More about our weather records

Advertising

Cranbrook weather history for previous 24 hours

 ConditionsComfort  
Time TempWeatherWind HumidityBarometerVisibility
8:00 PM
Fri, Sep 4
52 °FScattered clouds.14 mph58%30.05 "Hg25 mi
7:00 PM55 °FScattered clouds.12 mph51%30.03 "Hg25 mi
6:00 PM57 °FScattered clouds.12 mph51%30.03 "Hg25 mi
5:00 PM57 °FScattered clouds.7 mph48%30.04 "Hg25 mi
4:00 PM54 °FPartly sunny.8 mph58%30.06 "Hg25 mi
3:00 PM52 °FPartly sunny.10 mph62%30.06 "Hg25 mi
2:00 PM50 °FMostly cloudy.10 mph71%30.09 "Hg25 mi
1:00 PM46 °FMostly cloudy.7 mph82%30.10 "Hg25 mi
12:00 PM45 °FSprinkles. Cloudy.2 mph87%30.11 "Hg25 mi
11:00 AM41 °FMostly cloudy.No wind93%30.11 "Hg15 mi
10:00 AM41 °FPartly sunny.2 mph87%30.11 "Hg25 mi
9:00 AM39 °FLight rain. Passing clouds.5 mph87%30.11 "Hg15 mi
8:00 AM37 °FPartly cloudy.5 mph93%30.10 "Hg25 mi
7:00 AM37 °FPassing clouds.6 mph87%30.07 "Hg25 mi
6:00 AM39 °FPassing clouds.9 mph87%30.05 "Hg25 mi
5:00 AM41 °FPassing clouds.6 mph81%30.05 "Hg25 mi
4:00 AM41 °FPartly cloudy.2 mph87%30.05 "Hg25 mi
3:00 AM43 °FPassing clouds.5 mph81%30.05 "Hg25 mi
2:00 AM43 °FPassing clouds.5 mph81%30.03 "Hg25 mi
1:00 AM45 °FPassing clouds.6 mph81%30.03 "Hg25 mi
12:00 AM45 °FPassing clouds.5 mph81%30.03 "Hg25 mi
11:00 PM
Thu, Sep 3
48 °FPassing clouds.3 mph76%30.02 "Hg20 mi
10:50 PM48 °FPassing clouds.5 mph71%30.03 "Hg20 mi
10:00 PM50 °FPartly sunny.8 mph62%30.00 "Hg25 mi
9:00 PM52 °FPartly sunny.7 mph58%29.98 "Hg25 mi
Weather by CustomWeather, © 2015

See weather overviewHow to use our weather pages